Wichita, KS

6:24 PM CST on January 19, 2017 (GMT -0600)
Col Jabara

Weather History for KAAO - December, 2013

Change the Weather History Date:

Thursday, December 5, 2013

  Actual Average (KIAB) Record (KIAB)
Temperature  
Mean Temperature 18 °F -  
Max Temperature 21 °F 46 °F 69 °F (2001)
Min Temperature 16 °F 29 °F 15 °F (2005)
Degree Days  
Heating Degree Days 46    
Moisture  
Dew Point 6 °F    
Average Humidity 61    
Maximum Humidity 77    
Minimum Humidity 54    
Precipitation  
Precipitation 0.00 in - - ()
Sea Level Pressure  
Sea Level Pressure 30.32 in    
Wind  
Wind Speed 18 mph (North)    
Max Wind Speed 23 mph    
Max Gust Speed 32 mph    
Visibility 10 miles    
Events      
Averages and records for this station are not official NWS values.
T = Trace of Precipitation, MM = Missing Value Source: NWS Daily Summary

Daily Weather History Graph

Daily Weather History Graph

Search for Another Location

Airport or City:

Trip Planner

Search our weather history database for the weather conditions in past years. The results will help you decide how hot, cold, wet, or windy it might be!

Date:

Astronomy

Dec. 05, 2013 Rise Set
Actual Time 7:29 AM CST 5:09 PM CST
Civil Twilight 7:00 AM CST 5:38 PM CST
Nautical Twilight 6:27 AM CST 6:11 PM CST
Astronomical Twilight 5:55 AM CST 6:43 PM CST
Moon 9:52 AM CST (12/5) 8:30 PM CST (12/5)
Length of Visible Light 10h 38m
Length of Day
9h 40m
Waxing Crescent, 11% of the Moon is Illuminated
Dec 5
Waxing Crescent
Dec 9
First Quarter
Dec 17
Full
Dec 25
Last Quarter
Jan 1
New

Hourly Weather History & Observations

Time (CST) Temp. Windchill Dew Point Humidity Pressure Visibility Wind Dir Wind Speed Gust Speed Precip Events Conditions
12:54 AM 21.0 °F 4.6 °F 10.0 °F 63% 30.17 in 10.0 mi NNW 23.0 mph 32.2 mph 0.00 in   Overcast
1:54 AM 19.9 °F 4.3 °F 10.0 °F 65% 30.20 in 10.0 mi NNW 19.6 mph 28.8 mph N/A   Overcast
2:54 AM 19.0 °F 2.4 °F 9.0 °F 65% 30.23 in 10.0 mi North 21.9 mph 31.1 mph N/A   Partly Cloudy
3:54 AM 18.0 °F 1.3 °F 9.0 °F 68% 30.24 in 10.0 mi North 20.7 mph 31.1 mph N/A   Clear
4:54 AM 18.0 °F 1.3 °F 8.1 °F 65% 30.27 in 10.0 mi North 20.7 mph 25.3 mph N/A   Partly Cloudy
5:54 AM 18.0 °F 1.7 °F 7.0 °F 62% 30.28 in 10.0 mi North 19.6 mph 24.2 mph N/A   Scattered Clouds
6:54 AM 17.1 °F 1.5 °F 6.1 °F 62% 30.29 in 10.0 mi North 17.3 mph - N/A   Mostly Cloudy
7:54 AM 16.0 °F 0.1 °F 5.0 °F 62% 30.31 in 10.0 mi North 17.3 mph - N/A   Clear
8:54 AM 16.0 °F -0.4 °F 5.0 °F 62% 30.34 in 10.0 mi North 18.4 mph - N/A   Clear
9:54 AM 16.0 °F -2.1 °F 5.0 °F 62% 30.34 in 10.0 mi North 23.0 mph 28.8 mph N/A   Clear
10:54 AM 16.0 °F 0.1 °F 3.9 °F 59% 30.37 in 10.0 mi North 17.3 mph - N/A   Clear
11:54 AM 16.0 °F 1.7 °F 3.9 °F 59% 30.35 in 10.0 mi North 13.8 mph - N/A   Clear
12:54 PM 18.0 °F 3.6 °F 5.0 °F 57% 30.31 in 10.0 mi North 15.0 mph - N/A   Partly Cloudy
1:54 PM 18.0 °F 4.8 °F 5.0 °F 57% 30.33 in 10.0 mi North 12.7 mph - N/A   Overcast
2:54 PM 18.0 °F 5.4 °F 5.0 °F 57% 30.32 in 10.0 mi North 11.5 mph - N/A   Overcast
3:54 PM 18.0 °F 4.2 °F 6.1 °F 60% 30.33 in 10.0 mi North 13.8 mph - N/A   Overcast
4:54 PM 18.0 °F 4.8 °F 5.0 °F 57% 30.33 in 10.0 mi North 12.7 mph - N/A   Overcast
5:54 PM 18.0 °F 6.9 °F 5.0 °F 57% 30.32 in 10.0 mi NNE 9.2 mph - N/A   Overcast
6:54 PM 18.0 °F 6.1 °F 5.0 °F 57% 30.36 in 10.0 mi North 10.4 mph - N/A   Overcast
7:54 PM 18.0 °F 6.9 °F 3.9 °F 54% 30.38 in 10.0 mi NNE 9.2 mph - N/A   Overcast
8:54 PM 17.1 °F 5.0 °F 3.9 °F 56% 30.39 in 10.0 mi North 10.4 mph - N/A   Overcast
9:54 PM 17.1 °F 5.0 °F 3.9 °F 56% 30.40 in 10.0 mi North 10.4 mph - N/A   Overcast
10:54 PM 16.0 °F 1.7 °F 9.0 °F 74% 30.43 in 10.0 mi North 13.8 mph - N/A   Overcast
11:54 PM 16.0 °F 2.3 °F 10.0 °F 77% 30.45 in 10.0 mi North 12.7 mph - 0.00 in   Overcast